Weather History for Dickinson, ND

Change the Weather History Date:

Friday, November 28, 2014

  Actual Average Record
Temperature  
Mean Temperature 33 °F 23 °F  
Max Temperature 48 °F 33 °F 59 °F (2002)
Min Temperature 17 °F 13 °F -18 °F (1985)
Degree Days  
Heating Degree Days 32 42  
Month to date heating degree days 1176 980  
Since 1 July heating degree days 2096 1991  
Cooling Degree Days 0 0  
Month to date cooling degree days 0 0  
Year to date cooling degree days 256 419  
Moisture  
Dew Point 25 °F    
Average Humidity 72    
Maximum Humidity 91    
Minimum Humidity 53    
Precipitation  
Precipitation T in 0.01 in 0.07 in (1960)
Month to date precipitation 0.29 0.52  
Year to date precipitation 21.79 15.51  
Sea Level Pressure  
Sea Level Pressure 29.59 in    
Wind  
Wind Speed 9 mph (SE)    
Max Wind Speed 20 mph    
Max Gust Speed 29 mph    
Visibility 10 miles    
Events      
T = Trace of Precipitation, MM = Missing Value Source: NWS Daily Summary

Daily Weather History Graph

Daily Weather History Graph

Search for Another Location

Airport:

Trip Planner

Search our weather history database for the weather conditions in past years. The results will help you decide how hot, cold, wet, or windy it might be!

Date:

Astronomy

Nov. 28, 2014 Rise Set
Actual Time 7:11 AM MST 4:06 PM MST
Civil Twilight 6:37 AM MST 4:40 PM MST
Nautical Twilight 5:59 AM MST 5:18 PM MST
Astronomical Twilight 5:23 AM MST 5:54 PM MST
Moon 11:53 AM MST 11:12 PM MST
Length of Visible Light 10h 02m
Length of Day
8h 54m
Waxing Crescent, 43% of the Moon is Illuminated
Nov 28
Waxing Crescent
Nov 29
First Quarter
Dec 6
Full
Dec 14
Last Quarter
Dec 21
New

Hourly Weather History & Observations

Time (MST) Temp. Windchill Dew Point Humidity Pressure Visibility Wind Dir Wind Speed Gust Speed Precip Events Conditions
12:56 AM 19.9 °F 11.1 °F 17.1 °F 89% 29.82 in 10.0 mi ENE 6.9 mph - 0.00 in   Overcast
1:56 AM 19.9 °F 10.1 °F 17.1 °F 89% 29.79 in 10.0 mi East 8.1 mph - 0.00 in   Overcast
2:56 AM 21.0 °F 10.6 °F 18.0 °F 88% 29.79 in 10.0 mi NE 9.2 mph - N/A   Overcast
3:56 AM 19.9 °F 10.1 °F 17.1 °F 89% 29.76 in 10.0 mi East 8.1 mph - N/A   Mostly Cloudy
4:56 AM 19.0 °F 11.1 °F 16.0 °F 88% 29.75 in 10.0 mi ESE 5.8 mph - N/A   Scattered Clouds
5:56 AM 19.0 °F 10.0 °F 15.1 °F 85% 29.74 in 10.0 mi East 6.9 mph - N/A   Clear
6:56 AM 18.0 °F 6.9 °F 14.0 °F 84% 29.74 in 10.0 mi East 9.2 mph - N/A   Scattered Clouds
7:56 AM 17.1 °F 5.0 °F 14.0 °F 88% 29.74 in 10.0 mi ENE 10.4 mph - N/A   Partly Cloudy
8:56 AM 19.0 °F 8.2 °F 16.0 °F 88% 29.72 in 10.0 mi ESE 9.2 mph - N/A   Partly Cloudy
9:56 AM 23.0 °F 14.7 °F 19.0 °F 85% 29.70 in 10.0 mi East 6.9 mph - N/A   Clear
10:56 AM 32.0 °F 26.4 °F 24.1 °F 73% 29.66 in 10.0 mi SE 5.8 mph - N/A   Scattered Clouds
11:56 AM 35.1 °F 28.6 °F 27.0 °F 72% 29.62 in 10.0 mi SE 8.1 mph - N/A   Scattered Clouds
12:56 PM 37.9 °F 33.5 °F 28.9 °F 70% 29.59 in 10.0 mi SSE 5.8 mph - N/A   Mostly Cloudy
1:56 PM 41.0 °F 36.4 °F 30.9 °F 67% 29.55 in 10.0 mi SE 6.9 mph - N/A   Overcast
2:56 PM 39.9 °F 33.9 °F 32.0 °F 73% 29.52 in 10.0 mi SSE 9.2 mph - N/A   Mostly Cloudy
3:56 PM 37.9 °F 30.9 °F 32.0 °F 79% 29.52 in 10.0 mi South 10.4 mph - N/A   Clear
4:56 PM 39.0 °F 31.8 °F 32.0 °F 76% 29.50 in 10.0 mi South 11.5 mph - N/A   Clear
5:56 PM 39.9 °F 32.1 °F 32.0 °F 73% 29.49 in 10.0 mi SSW 13.8 mph - N/A   Clear
6:56 PM 37.9 °F 31.5 °F 30.0 °F 73% 29.47 in 10.0 mi SSW 9.2 mph - N/A   Clear
7:56 PM 39.9 °F - 30.0 °F 68% 29.44 in 10.0 mi Calm Calm - N/A   Clear
8:56 PM 41.0 °F 35.2 °F 30.9 °F 67% 29.41 in 10.0 mi SSW 9.2 mph - N/A   Overcast
9:56 PM 46.0 °F 39.9 °F 30.9 °F 56% 29.39 in 10.0 mi WSW 13.8 mph - N/A   Overcast
10:56 PM 45.0 °F 39.3 °F 32.0 °F 60% 29.37 in 10.0 mi WSW 11.5 mph - N/A   Overcast
11:37 PM 42.1 °F 36.1 °F 30.9 °F 65% 29.33 in 10.0 mi NW 10.4 mph - N/A   Mostly Cloudy
11:56 PM 39.9 °F 32.1 °F 30.9 °F 70% 29.39 in 10.0 mi NW 13.8 mph - N/A   Scattered Clouds